Midland, NC (28107)

2:10 AM EDT on October 01, 2014 (GMT -0400)
Thief River Farm | Change Station
CLOSE
Current Station
Personal Weather Station
Location: Midland, NC
Elevation: 604 ft
Nearby Weather Stations

Elev 604 ft 35.28 °N, 80.54 °W | Updated 2 minutes ago

Partly Cloudy
Partly Cloudy
60.4 °F
Feels Like 60.4 °F
N
0.0
Wind Variable Wind from SSW

Today
High -- | Low -- °F
--% Chance of Precip.
Yesterday
High -- | Low -- °F
Precip. -- in
7:16 AM 7:06 PM
Waxing Crescent, 44% visible
Pressure 29.97 in
Visibility 1.0 miles
Clouds
Dew Point 60 °F
Humidity 99%
Rainfall 0.00 in
Snow Depth Not available.
UV Not available.
Pollen 4.60 out of 12
Ozone Good
PM2.5 Moderate
Flu Activity Not available.
METAR KJQF 010535Z AUTO 00000KT 1SM BR VV007 16/15 A2997 RMK AO2

More Conditions Fewer Conditions

Pressure 29.97 in
Visibility 1.0 miles
Clouds
Dew Point 60 °F
Humidity 99%
Rainfall 0.00 in
Snow Depth Not available.
UV Not available.
Pollen 4.60 out of 12
Ozone Good
PM2.5 Moderate
Flu Activity Not available.
METAR KJQF 010535Z AUTO 00000KT 1SM BR VV007 16/15 A2997 RMK AO2

More Conditions Fewer Conditions

10-Day Weather Forecast

Almanac

Astronomy

Oct. 01, 2014 Rise Set
Actual Time 7:16 AM EDT 7:06 PM EDT
Civil Twilight 6:51 AM EDT 7:31 PM EDT
Nautical Twilight 6:22 AM EDT 8:00 PM EDT
Astronomical Twilight 5:52 AM EDT 8:30 PM EDT
Moon 2:07 PM EDT No Moon Set
Length of Visible Light 12h 39m
Length of Day
11h 49m
Tomorrow will be 2m 12s shorter.
Waxing Crescent, 44% of the Moon is Illuminated
Today
Waxing Crescent
Oct 1
First Quarter
Oct 8
Full
Oct 15
Last Quarter
Oct 23
New

Today's Extremes

State Highs State Lows

Community

WunderPhotos

Upload Photos

1,757,877 photos uploaded!

Nearby

Air Quality

  Air Quality AQ Index Pollutant
Yesterday Good
PM2.5
Yesterday Good
OZONE
Current Moderate
PM2.5
Current Good
OZONE
Wednesday Moderate
OZONE
Wednesday Moderate
PM2.5
Thursday Moderate
OZONE
Thursday Moderate
PM2.5
Friday Moderate
PM2.5
Friday Good
OZONE

Snow Depth

Station Depth Elevation
No new snow has been reported.

Earthquake Activity

City Distance Mag. Time & Date
No recent earthquake activity has been reported nearby.
Minimum magnitude displayed is 2.5.

Coastal Water Temperatures

Place Temperature
No Stations Reporting

Nearby Weather Stations